SL-14 DEB, 45290

Orbit data source: Space-Track

SL-14 DEB, 45290 is space debris in LEO originally from a launch on Thu, 15 Aug 1991 UTC launched from the Plesetsk Missile And Space Complex (PKMTR). Debris objects in space refer to the collection of defunct objects orbiting the Earth. Examples of debris include non-operational satellites, rocket bodies, and fragments generated from explosions, collisions, or faulty payload assembly.

Loading next visibility...
Identifier
45290, 1991-056AC
Orbit
LEO
Country
Flag of CISCIS
Related business
Manufacturer
Unknown
Mission
Spacecraft
Bus & Motor
Unknown
Mass
Unknown
Launch date (UTC)
1991-08-15 (34 years ago)
Launch vehicle
Unknown
Launch site
Plesetsk Missile And Space Complex (PKMTR)
Object type
Payload
Rocket body
Debris
Shape & HBR
Unknown
Radar Cross Section
Small (<0.1 m²)

Expand to show TLE details & history
Last TLE update: 20 hours ago

TLE from 20 hours ago
0 SL-14 DEB
1 45290U 91056AC  25242.15851902  .00001457  00000-0  25531-2 0  9992
2 45290  82.6297 314.2427 0094796 302.3999  56.7992 13.40853940269393
Epoch: 2025-08-30T03:48Z
TLE epoch observation values (Epoch: 2025-08-30T03:48:16.043Z)
Latitude
0.00006°
Longitude
-81.42097°
Altitude
1,070.562 km
Speed
7.335 km/s
True Right ascension
20h 56m 58s
True Declination
0° 00' 00"
Sunlit
Object was in full shadow at epoch
Visualization orbit readout
Latitude
Unknown
Longitude
Unknown
Altitude
Unknown
Speed
Unknown
Apparent Right ascension
Unknown
Apparent Declination
Unknown
Sunlit
N/A
Visualization observer readout
Local Sidereal Time
15:54:34
Azimuth
Unknown
Elevation
Unknown
Doppler factor
Unknown
Orbital elements
Apogee altitude
1,174.229 km
Perigee altitude
1,032.387 km
Semi-major axis
7,481.445 km
Eccentricity
0.00948
Inclination
82.6297°
RAAN
314.2427°
Arg. of periapsis
302.3999°
True anomaly
57.71405°
Mean anomaly
56.7992°
Eccentric anomaly
57.25603°
Mean motion
3.35401 °/min
Orbital period
107.33 mins
BSTAR
0.0025531
Loading maneuver chart data...
Computing Atmospheric mass density...
Loading historical data...
Loading historical data...
Loading historical data...
Loading historical data...
Loading historical data...
Loading historical data...
Loading historical data...

Documentation

Showing up to 5 results
|